Regional Weather Roundup
Issued by NWS Cleveland, OH

Home | Current Version | Previous Version | Text Only | Print | Product List | Glossary Off
Versions: 1 2 3 4 5 6 7 8 9 10 11 12 13 14 15 16 17 18 19 20 21 22 23 24 25 26 27 28 29 30 31 32 33 34 35 36 37 38 39 40 41 42 43 44 45 46 47 48 49 50

240
ASUS41 KCLE 100300
RWRCLE
OHIO REGIONAL WEATHER ROUNDUP
NATIONAL WEATHER SERVICE WILMINGTON, OH
1000 PM EST TUE FEB 09 2016

NOTE: "FAIR" INDICATES FEW OR NO CLOUDS BELOW 12,000 FEET WITH NO
SIGNIFICANT WEATHER AND/OR OBSTRUCTIONS TO VISIBILITY.

OHZ001>008-015>018-024>027-034-035-043-044-100400-
   NORTHWEST OHIO

CITY           SKY/WX    TMP DP  RH WIND       PRES   REMARKS
DEFIANCE       CLOUDY    24  17  74 W10G17    29.81R WCI  14
FINDLAY        MOCLDY    24  16  71 W18G29    29.78R WCI  10
TOLEDO EXPRESS CLOUDY    25  18  74 W16G23    29.76R WCI  12
TOLEDO EXEC    CLOUDY    27  19  72 W17       29.76R WCI  14
LIMA           CLOUDY    21  17  84 W17       29.81R WCI   7
$$

OHZ009>014-019>023-028>033-038-089-100400-
   NORTHEAST OHIO

CITY           SKY/WX    TMP DP  RH WIND       PRES   REMARKS
CLE-HOPKINS    LGT SNOW  26  22  84 W13       29.73R FOG     WCI  15
CLE-LAKEFRONT  LGT SNOW  29  24  82 W24G33    29.70R WCI  15
CUY CO. ARPT   LGT SNOW  28  25  86 NW12G23   29.69R WCI  18
LORAIN-ELYRIA  LGT SNOW  25  21  85 W12       29.72S FOG     WCI  14
ASHTABULA      LGT SNOW  27  24  89 W15       29.65R FOG     WCI  15
AKRON-CANTON   LGT SNOW  25  21  85 W17       29.69S WCI  12
WOOSTER        LGT SNOW  25  21  86 W17       29.72R FOG     WCI  11
MANSFIELD      LGT SNOW  23  20  88 W12G22    29.72S FOG     WCI  12
YOUNGSTOWN     LGT SNOW  27  21  78 W12G22    29.66R WCI  17
$$

OHZ042-051>053-060>062-070>072-077>081-100400-
  SOUTHWEST OHIO

CITY           SKY/WX    TMP DP  RH WIND       PRES   REMARKS
CINC-COVINGTON CLOUDY    19  12  74 W15       29.91R WCI   5
CINC-LUNKEN    CLOUDY    21  14  74 W18       29.95R WCI   6
HAMILTON       FLURRIES  21  12  68 W8G20     29.93R WCI  11
DAYTON         NOT AVBL
WRIGHT-PAT AFB NOT AVBL
DAYTON GENERAL FLURRIES  20  12  71 W13G20    29.87R WCI   7
WILMINGTON     FLURRIES  20  15  81 W14       29.85R WCI   7
$$

OHZ036-037-039>041-045>050-054>059-063>069-073>076-082>088-100400-
  CENTRAL AND SOUTHEAST OHIO

CITY           SKY/WX    TMP DP  RH WIND       PRES   REMARKS
COLUMBUS       LGT SNOW  23  16  74 W17G23    29.81S WCI   9
OSU AIRPORT    CLOUDY    23  17  78 W12G24    29.81S WCI  12
BOLTON FIELD   NOT AVBL
RICKENBACK AFB NOT AVBL
NEWARK         CLOUDY    24  17  74 MISG      29.79R
MARION         CLOUDY    24  17  74 W16       29.78R WCI  11
LANCASTER      CLOUDY    24  19  81 W10       29.82R WCI  14
ZANESVILLE     CLOUDY    25  20  81 SW8       29.78R WCI  16
NEW PHILLY     LGT SNOW  26  21  81 W8        29.74S WCI  18
$$




USA.gov is the U.S. government's official web portal to all federal, state and local government web resources and services.